Lid_Strength_Index
4 5 5 5 5 6 7 6 7 7 6 6 6 6 6 7 6 7 8 7 8 7 5 5 4 4 5 5 5 5 5 5 7 5 4 3 3 3 2 0 -0 0 0
4 4 4 4 5 6 6 6 6 6 6 5 5 5 6 8 9 8 7 6 6 6 4 5 5 4 6 6 7 7 6 6 6 8 6 5 4 3 2 2 1 -0 -0
4 5 6 7 6 7 7 6 6 6 6 6 5 6 8 8 8 7 6 6 6 5 5 5 6 6 7 8 8 8 8 7 7 8 8 7 6 5 5 4 4 3 2
6 7 7 7 7 7 7 6 6 6 6 6 5 5 6 6 7 7 7 7 6 5 5 5 5 5 5 6 7 8 7 8 8 8 8 8 8 7 6 7 7 5 4
7 7 8 8 7 7 6 6 5 5 5 4 5 5 6 7 7 8 8 7 7 6 6 5 5 4 3 3 4 5 6 6 7 7 8 7 8 8 8 7 7 6 6
8 8 7 7 5 6 6 6 5 5 5 5 6 6 7 6 7 7 6 8 8 6 6 6 6 4 4 4 5 4 4 5 6 6 6 7 6 6 7 7 6 6 7
8 7 6 6 5 6 6 6 6 7 7 7 7 7 7 7 7 8 7 8 7 7 7 7 6 4 5 6 5 5 5 5 4 5 6 6 6 6 6 7 6 6 7
7 6 6 6 6 6 6 7 7 7 7 7 7 6 7 7 8 9 8 8 8 7 7 7 6 5 5 6 7 6 6 6 5 5 5 5 5 5 5 5 7 7 6
6 6 6 6 6 7 7 8 8 8 8 8 7 7 6 9 9 9 9 8 8 9 7 6 5 5 7 8 7 7 6 6 5 5 6 7 8 7 7 6 7 8 8
7 6 7 7 6 7 8 8 7 8 8 7 6 5 6 8 9 9 9 9 8 8 7 6 6 6 8 8 7 7 7 7 7 7 7 7 6 6 6 6 6 7 7
6 7 7 7 7 7 8 7 7 8 8 7 5 6 6 7 9 9 9 8 8 7 6 6 5 8 8 8 8 6 7 7 6 6 7 7 7 6 6 6 5 5 7
7 7 7 7 6 6 8 7 8 9 9 9 9 9 8 7 9 9 10 10 8 7 7 6 6 9 9 8 7 8 8 6 5 6 6 7 8 7 7 6 5 5 5
7 8 8 7 7 7 6 8 8 10 10 10 10 10 10 9 9 10 10 10 9 8 7 7 8 8 8 8 7 7 7 6 6 6 6 6 7 7 6 6 5 4 4
8 8 8 8 8 8 8 8 10 11 11 11 10 12 11 10 11 11 11 11 9 8 8 7 7 8 8 7 7 6 6 5 6 6 6 5 6 6 7 5 6 5 5
8 8 8 8 9 9 9 9 11 13 11 12 11 10 11 12 11 11 12 12 11 10 9 8 8 8 8 7 7 6 6 6 6 6 6 6 5 6 6 6 6 6 6
8 9 10 9 9 9 8 10 11 11 11 11 11 11 10 11 11 11 11 11 10 10 9 9 9 9 9 9 9 9 8 7 7 7 6 6 5 5 5 6 7 6 7
10 10 9 9 9 9 8 8 10 12 11 11 12 11 11 11 11 11 10 10 10 10 10 10 10 10 10 10 10 9 10 8 8 8 7 6 5 4 5 6 5 5 5
9 9 10 10 10 9 7 8 10 11 10 11 11 12 12 11 11 11 10 9 10 9 10 10 10 10 10 10 10 10 10 10 10 10 9 7 5 5 3 3 4 5 5
8 9 11 10 9 9 9 11 11 10 11 11 12 12 12 12 11 10 10 10 11 11 10 10 10 11 11 11 11 11 10 11 11 11 10 8 6 4 3 2 3 7 7
9 10 11 10 8 9 10 12 11 11 12 12 13 13 12 12 11 10 8 9 10 11 11 12 12 12 12 12 12 12 12 12 12 12 11 10 8 5 4 3 3 3 4
9 9 13 9 10 11 10 11 11 11 11 12 12 13 15 13 11 11 11 10 11 11 12 12 12 12 12 13 13 13 13 13 13 13 11 10 9 6 5 4 3 3 5
9 9 9 10 10 10 12 11 11 12 11 11 11 12 14 12 11 11 12 12 11 11 12 13 13 13 13 14 14 14 14 15 14 14 12 12 8 6 6 6 5 4 3
10 10 10 11 11 12 12 11 12 12 12 12 11 11 11 11 11 12 12 12 12 12 12 13 14 13 13 14 14 14 15 16 15 13 13 12 9 9 8 7 6 6 6
10 10 11 12 12 12 12 13 13 13 12 12 11 11 10 12 13 13 13 12 12 12 13 14 15 15 14 15 15 15 15 15 14 14 13 10 10 9 9 8 7 7 7
10 10 11 12 12 12 12 12 12 12 12 12 11 12 11 12 13 13 13 13 13 13 13 15 15 15 15 15 16 15 15 15 15 14 12 10 10 10 9 9 9 8 8
10 10 11 11 11 11 11 11 11 11 11 11 11 11 12 13 13 14 14 13 14 14 14 14 15 15 15 15 15 16 16 16 15 15 12 11 11 11 10 10 10 9 10